EW6470 Weather Reports


Display with metric or nautical units.
time (UTC)temp
F
wind
direction
speed
MPH
gust
MPH
rain 1hr
in
rain 24hr
in
rain mn
in
humidity
%
barometer
mb
20260902083519 38 0 0.0 0.0 0.00 0.00 0.00 94 1007.4
20260902083044 39 0 0.0 0.0 0.00 0.00 0.00 94 1007.3
20260902082517 39 0 0.0 0.0 0.00 0.00 0.00 94 1007.4
20260902082018 39 0 0.0 0.0 0.00 0.00 0.00 94 1007.5
20260902081535 39 0 0.0 0.0 0.00 0.00 0.00 94 1007.4
20260902081019 39 0 0.0 0.0 0.00 0.00 0.00 94 1007.4
20260902080520 39 0 0.0 0.0 0.00 0.00 0.00 94 1007.4
20260902080031 40 0 0.0 0.0 0.00 0.00 0.00 94 1007.4
20260902075518 40 0 0.0 0.0 0.00 0.00 0.00 94 1007.4
20260902075018 40 0 0.0 0.0 0.00 0.00 0.00 94 1007.3
20260902074535 40 0 0.0 0.0 0.00 0.00 0.00 94 1007.4
20260902074017 40 0 0.0 0.0 0.00 0.00 0.00 94 1007.4
20260902073515 40 0 0.0 0.0 0.00 0.00 0.00 94 1007.4
20260902073035 40 0 0.0 0.0 0.00 0.00 0.00 94 1007.3
20260902072520 41 0 0.0 0.0 0.00 0.00 0.00 93 1007.3
20260902072019 41 0 0.0 0.0 0.00 0.00 0.00 93 1007.4
20260902071538 41 0 0.0 0.0 0.00 0.00 0.00 93 1007.4
20260902071022 41 0 0.0 0.0 0.00 0.00 0.00 93 1007.3
20260902070519 41 0 0.0 0.0 0.00 0.00 0.00 93 1007.3
20260902070035 41 0 0.0 0.0 0.00 0.00 0.00 93 1007.2
20260902065518 42 0 0.0 0.0 0.00 0.00 0.00 93 1007.3
20260902065019 42 0 0.0 0.0 0.00 0.00 0.00 93 1007.3
20260902064537 42 0 0.0 0.0 0.00 0.00 0.00 93 1007.3
20260902064016 42 0 0.0 0.0 0.00 0.00 0.00 93 1007.3
20260902063520 43 0 0.0 0.0 0.00 0.00 0.00 92 1007.3
20260902063034 43 0 0.0 0.0 0.00 0.00 0.00 92 1007.3
20260902062520 43 0 0.0 0.0 0.00 0.00 0.00 92 1007.1
20260902062020 43 0 0.0 0.0 0.00 0.00 0.00 92 1007.0
20260902061545 43 0 0.0 0.0 0.00 0.00 0.00 92 1007.1
20260902061018 44 0 0.0 0.0 0.00 0.00 0.00 92 1007.0
20260902060518 44 0 0.0 0.0 0.00 0.00 0.00 92 1007.1
20260902060033 44 0 0.0 0.0 0.00 0.00 0.00 91 1007.0
20260902055521 45 0 0.0 0.0 0.00 0.00 0.00 91 1007.1
20260902055019 45 0 0.0 0.0 0.00 0.00 0.00 91 1006.9
20260902054537 45 0 0.0 0.0 0.00 0.00 0.00 90 1006.9
20260902054019 45 0 0.0 0.0 0.00 0.00 0.00 90 1007.0
20260902053517 46 0 0.0 0.0 0.00 0.00 0.00 90 1006.9
20260902053036 46 0 0.0 0.0 0.00 0.00 0.00 90 1007.0
20260902052521 46 0 0.0 0.0 0.00 0.00 0.00 89 1007.0
20260902052017 47 0 0.0 0.0 0.00 0.00 0.00 89 1006.9
20260902051537 48 0 0.0 0.0 0.00 0.00 0.00 89 1007.0
20260902051016 48 0 0.0 0.0 0.00 0.00 0.00 89 1006.8
20260902050521 48 0 0.0 0.0 0.00 0.00 0.00 88 1006.9
20260902050038 49 0 0.0 0.0 0.00 0.00 0.00 88 1006.8
20260902045520 49 0 0.0 0.0 0.00 0.00 0.00 87 1006.7
20260902045022 50 0 0.0 0.0 0.00 0.00 0.00 86 1006.7
20260902044546 50 0 0.0 0.0 0.00 0.00 0.00 85 1006.7
20260902044019 50 0 0.0 0.0 0.00 0.00 0.00 84 1006.7
20260902043518 51 0 0.0 0.0 0.00 0.00 0.00 84 1006.7
20260902043031 51 0 0.0 0.0 0.00 0.00 0.00 83 1006.7
20260902042516 52 0 0.0 0.0 0.00 0.00 0.00 81 1006.7
20260902042018 52 0 0.0 0.0 0.00 0.00 0.00 80 1006.8
20260902041535 52 0 0.0 0.0 0.00 0.00 0.00 79 1006.8
20260902041017 53 0 0.0 0.0 0.00 0.00 0.00 78 1006.8
20260902040516 53 0 0.0 0.0 0.00 0.00 0.00 77 1006.8
20260902040035 53 0 0.0 0.0 0.00 0.00 0.00 76 1006.8
20260902035516 54 0 0.0 1.0 0.00 0.00 0.00 74 1006.8
20260902035017 54 0 0.0 3.0 0.00 0.00 0.00 73 1006.9
20260902034535 55 250 1.0 3.0 0.00 0.00 0.00 71 1006.7
20260902034018 55 0 0.0 3.0 0.00 0.00 0.00 71 1006.7
20260902033516 55 0 0.0 4.0 0.00 0.00 0.00 70 1006.6
20260902033033 55 165 1.0 4.0 0.00 0.00 0.00 69 1006.6
20260902032516 55 192 1.0 4.0 0.00 0.00 0.00 69 1006.6
20260902032017 55 223 1.0 4.0 0.00 0.00 0.00 69 1006.6
20260902031539 55 157 1.0 4.0 0.00 0.00 0.00 69 1006.6
20260902031016 56 175 2.0 4.0 0.00 0.00 0.00 68 1006.5
20260902030515 56 227 1.0 4.0 0.00 0.00 0.00 68 1006.6
20260902030033 56 0 0.0 4.0 0.00 0.00 0.00 69 1006.4
20260902025518 56 198 0.0 4.0 0.00 0.00 0.00 67 1006.5
20260902025016 57 277 1.0 3.0 0.00 0.00 0.00 66 1006.4
20260902024532 58 147 0.0 3.0 0.00 0.00 0.00 65 1006.4
20260902024018 58 172 0.0 3.0 0.00 0.00 0.00 65 1006.4
20260902023518 58 266 1.0 5.0 0.00 0.00 0.00 63 1006.5
20260902023038 59 0 0.0 5.0 0.00 0.00 0.00 63 1006.4
20260902022518 59 141 2.0 5.0 0.00 0.00 0.00 61 1006.5
20260902022018 59 177 1.0 3.0 0.00 0.00 0.00 62 1006.5
20260902021546 59 259 1.0 4.0 0.00 0.00 0.00 61 1006.5
20260902021024 59 276 1.0 5.0 0.00 0.00 0.00 59 1006.4
20260902020518 60 139 1.0 5.0 0.00 0.00 0.00 59 1006.5
20260902020031 61 257 2.0 5.0 0.00 0.00 0.00 56 1006.5
20260902015518 62 221 1.0 5.0 0.00 0.00 0.00 55 1006.4
20260902015016 63 230 1.0 5.0 0.00 0.00 0.00 51 1006.4
20260902014539 63 146 1.0 4.0 0.00 0.00 0.00 50 1006.4
20260902014015 63 234 1.0 4.0 0.00 0.00 0.00 45 1006.3
20260902013520 63 252 0.0 4.0 0.00 0.00 0.00 48 1006.4
20260902013036 63 231 1.0 4.0 0.00 0.00 0.00 47 1006.5
20260902012518 63 284 0.0 4.0 0.00 0.00 0.00 47 1006.5
20260902012019 62 231 0.0 4.0 0.00 0.00 0.00 47 1006.6
20260902011533 63 247 1.0 4.0 0.00 0.00 0.00 45 1006.5
20260902011018 62 228 1.0 3.0 0.00 0.00 0.00 49 1006.5
20260902010518 62 126 0.0 2.0 0.00 0.00 0.00 48 1006.6
20260902010033 62 0 0.0 4.0 0.00 0.00 0.00 49 1006.6
20260902005516 62 0 1.0 4.0 0.00 0.00 0.00 47 1006.7
20260902005018 62 247 1.0 4.0 0.00 0.00 0.00 49 1006.6
20260902004536 62 45 0.0 3.0 0.00 0.00 0.00 50 1006.6
20260902004020 62 0 0.0 2.0 0.00 0.00 0.00 51 1006.6
20260902003519 62 245 0.0 4.0 0.00 0.00 0.00 51 1006.7
20260902003040 61 0 1.0 5.0 0.00 0.00 0.00 52 1006.6
20260902002516 61 28 1.0 5.0 0.00 0.00 0.00 48 1006.7
20260902002015 62 0 1.0 4.0 0.00 0.00 0.00 51 1006.7
20260902001536 61 139 1.0 2.0 0.00 0.00 0.00 51 1006.8
20260902001020 61 0 0.0 2.0 0.00 0.00 0.00 57 1006.7
20260902000519 61 288 0.0 4.0 0.00 0.00 0.00 52 1006.6
20260902000035 61 0 1.0 4.0 0.00 0.00 0.00 51 1006.6
20260901235521 61 270 1.0 4.0 0.00 0.00 0.00 53 1006.7
20260901235019 61 279 0.0 1.0 0.00 0.00 0.00 55 1006.7
20260901234534 60 0 0.0 2.0 0.00 0.00 0.00 55 1006.7
20260901234019 60 0 0.0 4.0 0.00 0.00 0.00 58 1006.8
20260901233516 60 0 1.0 5.0 0.00 0.00 0.00 54 1006.8
20260901233034 59 172 1.0 5.0 0.00 0.00 0.00 54 1006.8
20260901232518 59 209 1.0 5.0 0.00 0.00 0.00 56 1006.8
20260901232018 59 236 1.0 4.0 0.00 0.00 0.00 55 1006.9
20260901231535 59 269 1.0 4.0 0.00 0.00 0.00 55 1006.9
20260901231022 59 245 1.0 4.0 0.00 0.00 0.00 56 1006.8
20260901230518 58 238 1.0 3.0 0.00 0.00 0.00 61 1006.8
20260901230036 58 265 0.0 5.0 0.00 0.00 0.00 58 1006.8
20260901225519 58 170 1.0 5.0 0.00 0.00 0.00 56 1006.8
20260901225019 58 167 2.0 5.0 0.00 0.00 0.00 56 1007.0
20260901224533 58 215 2.0 4.0 0.00 0.00 0.00 57 1006.9
20260901224016 57 206 1.0 6.0 0.00 0.00 0.00 59 1007.0
20260901223516 57 186 1.0 6.0 0.00 0.00 0.00 60 1006.9
20260901223043 57 212 1.0 4.0 0.00 0.00 0.00 59 1007.0
20260901222520 57 215 2.0 4.0 0.00 0.00 0.00 58 1007.2
20260901222024 57 264 1.0 4.0 0.00 0.00 0.00 60 1007.1
20260901221535 57 235 2.0 4.0 0.00 0.00 0.00 58 1007.1
20260901221018 57 145 1.0 4.0 0.00 0.00 0.00 63 1007.1
20260901220520 56 240 0.0 3.0 0.00 0.00 0.00 63 1007.2
20260901220039 56 255 1.0 3.0 0.00 0.00 0.00 59 1007.2
20260901215518 56 225 1.0 3.0 0.00 0.00 0.00 60 1007.2
20260901215016 56 239 1.0 3.0 0.00 0.00 0.00 60 1007.2
20260901214535 56 233 1.0 4.0 0.00 0.00 0.00 61 1007.3
20260901214016 56 195 1.0 4.0 0.00 0.00 0.00 61 1007.3
20260901213516 56 211 0.0 3.0 0.00 0.00 0.00 61 1007.3
20260901213059 56 251 0.0 3.0 0.00 0.00 0.00 65 1007.3
20260901212520 56 273 1.0 4.0 0.00 0.00 0.00 63 1007.3
20260901212017 55 172 1.0 4.0 0.00 0.00 0.00 65 1007.4
20260901211534 55 165 1.0 4.0 0.00 0.00 0.00 63 1007.4
20260901211019 54 216 1.0 2.0 0.00 0.00 0.00 67 1007.4
20260901210518 53 53 0.0 4.0 0.00 0.00 0.00 66 1007.3
20260901210038 53 227 1.0 4.0 0.00 0.00 0.00 65 1007.4
20260901205517 53 170 0.0 3.0 0.00 0.00 0.00 68 1007.5
20260901205021 53 0 0.0 2.0 0.00 0.00 0.00 69 1007.5
20260901204544 52 138 0.0 2.0 0.00 0.00 0.00 70 1007.6
20260901204021 51 234 0.0 4.0 0.00 0.00 0.00 68 1007.6
20260901203521 50 0 1.0 4.0 0.00 0.00 0.00 70 1007.6
20260901203034 50 265 1.0 4.0 0.00 0.00 0.00 70 1007.8
20260901202518 49 190 1.0 4.0 0.00 0.00 0.00 72 1007.8
20260901202020 49 248 0.0 2.0 0.00 0.00 0.00 74 1007.7
20260901201539 49 201 1.0 2.0 0.00 0.00 0.00 75 1007.8
20260901201018 48 240 1.0 4.0 0.00 0.00 0.00 74 1007.7
20260901200517 48 210 1.0 4.0 0.00 0.00 0.00 75 1007.7
20260901200038 48 0 1.0 2.0 0.00 0.00 0.00 75 1007.9
20260901195521 47 135 0.0 3.0 0.00 0.00 0.00 79 1007.7
20260901195019 47 0 1.0 3.0 0.00 0.00 0.00 78 1007.7
20260901194534 47 154 1.0 3.0 0.00 0.00 0.00 80 1007.6
20260901194019 46 245 0.0 2.0 0.00 0.00 0.00 80 1007.7
20260901193520 46 261 0.0 4.0 0.00 0.00 0.00 81 1007.7
20260901193036 46 253 0.0 4.0 0.00 0.00 0.00 82 1007.7
20260901192515 46 229 0.0 4.0 0.00 0.00 0.00 84 1007.8
20260901192023 45 173 1.0 3.0 0.00 0.00 0.00 83 1007.8
20260901191537 45 0 0.0 0.0 0.00 0.00 0.00 86 1007.8
20260901191023 45 0 0.0 2.0 0.00 0.00 0.00 85 1007.7
20260901190520 44 0 0.0 2.0 0.00 0.00 0.00 87 1007.8
20260901190033 44 0 0.0 2.0 0.00 0.00 0.00 87 1007.7
20260901185519 44 160 1.0 2.0 0.00 0.04 0.00 88 1007.8
20260901185019 43 0 0.0 2.0 0.00 0.04 0.00 88 1007.9
20260901184542 43 154 0.0 1.0 0.00 0.04 0.00 90 1007.8
20260901184018 42 0 0.0 1.0 0.00 0.04 0.00 91 1007.9
20260901183517 42 0 0.0 1.0 0.00 0.04 0.00 92 1007.8
20260901183036 41 0 0.0 1.0 0.00 0.04 0.00 93 1007.8
20260901182520 41 0 0.0 0.0 0.00 0.04 0.00 96 1008.0
20260901182021 40 0 0.0 0.0 0.00 0.04 0.00 96 1007.9
20260901181535 40 0 0.0 0.0 0.00 0.04 0.00 96 1008.0
20260901181019 40 0 0.0 0.0 0.00 0.04 0.00 96 1007.9
20260901180519 39 0 0.0 0.0 0.00 0.04 0.00 96 1007.9
20260901180038 39 0 0.0 2.0 0.00 0.04 0.00 96 1007.9
20260901175518 39 0 0.0 2.0 0.00 0.04 0.00 96 1008.1
20260901175018 39 0 0.0 3.0 0.00 0.04 0.00 96 1008.1
20260901174534 38 0 0.0 4.0 0.00 0.04 0.00 97 1008.0
20260901174018 38 212 1.0 4.0 0.00 0.04 0.00 96 1008.1
20260901173520 37 0 0.0 0.0 0.00 0.04 0.00 96 1008.0
20260901173033 36 0 0.0 0.0 0.00 0.04 0.00 96 1008.0
20260901172524 35 0 0.0 0.0 0.00 0.04 0.00 96 1008.1
20260901172021 35 0 0.0 0.0 0.00 0.04 0.00 96 1008.1
20260901171539 34 0 0.0 0.0 0.00 0.04 0.00 96 1008.0
20260901171018 34 0 0.0 0.0 0.00 0.04 0.00 96 1008.1
20260901170518 33 0 0.0 0.0 0.00 0.04 0.00 96 1008.0
20260901170038 33 0 0.0 0.0 0.00 0.04 0.00 96 1007.9
20260901165516 32 0 0.0 0.0 0.00 0.05 0.00 96 1007.9
20260901165019 32 0 0.0 0.0 0.00 0.05 0.00 96 1008.0
20260901164534 32 0 0.0 0.0 0.00 0.05 0.00 96 1008.1
20260901164023 32 0 0.0 0.0 0.00 0.05 0.00 96 1008.0
20260901163520 32 0 0.0 0.0 0.00 0.05 0.00 96 1007.9
20260901163034 31 0 0.0 0.0 0.00 0.05 0.00 96 1007.9
20260901162517 31 0 0.0 0.0 0.00 0.05 0.00 96 1008.0
20260901162018 31 0 0.0 0.0 0.00 0.05 0.00 96 1007.9
20260901161539 31 0 0.0 0.0 0.00 0.05 0.00 96 1007.9
20260901161017 31 0 0.0 0.0 0.00 0.05 0.00 96 1007.8
20260901160520 30 0 0.0 0.0 0.00 0.05 0.00 96 1007.7
20260901160038 30 0 0.0 0.0 0.00 0.05 0.00 96 1007.8
20260901155519 30 0 0.0 0.0 0.00 0.18 0.00 96 1007.7
20260901155017 30 0 0.0 0.0 0.00 0.18 0.00 96 1007.7
20260901154537 30 0 0.0 0.0 0.00 0.18 0.00 96 1007.6
20260901154017 30 0 0.0 0.0 0.00 0.18 0.00 95 1007.6
20260901153518 30 0 0.0 0.0 0.00 0.18 0.00 95 1007.7
20260901153033 30 0 0.0 0.0 0.00 0.18 0.00 95 1007.6
20260901152520 30 0 0.0 0.0 0.00 0.18 0.00 96 1007.5
20260901152021 30 0 0.0 0.0 0.00 0.18 0.00 96 1007.5
20260901151534 30 0 0.0 0.0 0.00 0.18 0.00 96 1007.5
20260901151023 30 0 0.0 0.0 0.00 0.18 0.00 96 1007.6
20260901150520 30 0 0.0 0.0 0.00 0.18 0.00 96 1007.5
20260901150035 30 0 0.0 0.0 0.00 0.18 0.00 95 1007.4
20260901145517 30 0 0.0 0.0 0.00 0.23 0.00 95 1007.4
20260901145019 30 0 0.0 0.0 0.00 0.23 0.00 95 1007.4
20260901144535 30 0 0.0 0.0 0.00 0.23 0.00 95 1007.5
20260901144017 30 0 0.0 0.0 0.00 0.23 0.00 95 1007.3
20260901143516 30 0 0.0 0.0 0.00 0.23 0.00 95 1007.4
20260901143034 30 0 0.0 0.0 0.00 0.23 0.00 95 1007.2
20260901142519 30 0 0.0 0.0 0.00 0.23 0.00 95 1007.3
20260901142018 30 0 0.0 0.0 0.00 0.23 0.00 95 1007.1
20260901141538 30 0 0.0 0.0 0.00 0.23 0.00 95 1007.3
20260901141017 30 0 0.0 0.0 0.00 0.23 0.00 95 1007.2
20260901140519 30 0 0.0 0.0 0.00 0.23 0.00 95 1007.2
20260901140032 30 0 0.0 0.0 0.00 0.23 0.00 95 1007.1
20260901135518 30 0 0.0 0.0 0.00 0.35 0.00 95 1007.0
20260901135019 30 0 0.0 0.0 0.00 0.35 0.00 95 1007.1
20260901134532 30 0 0.0 0.0 0.00 0.35 0.00 95 1007.1
20260901134022 30 0 0.0 0.0 0.00 0.35 0.00 95 1007.1
20260901133519 30 0 0.0 0.0 0.00 0.35 0.00 95 1007.2
20260901133033 31 0 0.0 0.0 0.00 0.35 0.00 95 1007.1
20260901132520 31 0 0.0 0.0 0.00 0.35 0.00 95 1007.0
20260901132020 31 0 0.0 0.0 0.00 0.35 0.00 95 1007.2
20260901131531 31 0 0.0 0.0 0.00 0.35 0.00 95 1007.0
20260901131019 31 0 0.0 0.0 0.00 0.35 0.00 95 1007.0
20260901130517 31 0 0.0 0.0 0.00 0.35 0.00 95 1007.0
20260901130036 31 0 0.0 0.0 0.00 0.35 0.00 95 1007.1
20260901125516 31 0 0.0 0.0 0.00 0.40 0.00 95 1007.0
20260901125018 31 0 0.0 0.0 0.00 0.40 0.00 95 1007.0
20260901124536 31 0 0.0 0.0 0.00 0.40 0.00 95 1007.0
20260901124015 31 0 0.0 0.0 0.00 0.40 0.00 95 1006.9
20260901123514 31 0 0.0 2.0 0.00 0.40 0.00 95 1006.7
20260901123039 31 0 0.0 2.0 0.00 0.40 0.00 95 1006.7
20260901122519 31 0 0.0 2.0 0.00 0.40 0.00 95 1006.8
20260901122018 31 0 0.0 0.0 0.00 0.40 0.00 95 1006.7
20260901121537 31 0 0.0 0.0 0.00 0.40 0.00 95 1006.6
20260901121018 31 0 0.0 0.0 0.00 0.40 0.00 95 1006.6
20260901120517 31 0 0.0 0.0 0.00 0.40 0.00 95 1006.5
20260901120037 32 0 0.0 0.0 0.00 0.40 0.00 95 1006.6
20260901115517 32 0 0.0 0.0 0.00 0.40 0.00 95 1006.7
20260901115020 32 0 0.0 0.0 0.00 0.40 0.00 95 1006.6
20260901114550 32 0 0.0 0.0 0.00 0.40 0.00 95 1006.7
20260901114015 32 0 0.0 0.0 0.00 0.40 0.00 95 1006.6
20260901113519 32 0 0.0 0.0 0.00 0.40 0.00 95 1006.5
20260901113036 32 0 0.0 0.0 0.00 0.40 0.00 95 1006.6
20260901112522 32 0 0.0 0.0 0.00 0.40 0.00 95 1006.5
20260901112020 32 0 0.0 0.0 0.00 0.40 0.00 95 1006.5
20260901111533 32 0 0.0 0.0 0.00 0.40 0.00 95 1006.4
20260901111016 32 0 0.0 0.0 0.00 0.40 0.00 95 1006.4
20260901110517 33 0 0.0 0.0 0.00 0.40 0.00 95 1006.3
20260901110034 33 0 0.0 0.0 0.00 0.40 0.00 95 1006.1
20260901105518 33 0 0.0 0.0 0.00 0.40 0.00 95 1006.2
20260901105017 33 0 0.0 0.0 0.00 0.40 0.00 95 1006.2
20260901104535 33 0 0.0 0.0 0.00 0.40 0.00 95 1006.2
20260901104023 33 0 0.0 0.0 0.00 0.40 0.00 95 1006.2
20260901103521 33 0 0.0 0.0 0.00 0.40 0.00 95 1006.3
20260901103031 33 0 0.0 0.0 0.00 0.40 0.00 95 1006.3
20260901102523 34 0 0.0 0.0 0.00 0.40 0.00 95 1006.4
20260901102020 34 0 0.0 0.0 0.00 0.40 0.00 95 1006.2
20260901101531 34 0 0.0 0.0 0.00 0.40 0.00 95 1006.0
20260901101015 34 0 0.0 0.0 0.00 0.40 0.00 95 1005.9
20260901100515 34 0 0.0 0.0 0.00 0.40 0.00 95 1006.2
20260901100039 34 0 0.0 0.0 0.00 0.40 0.00 95 1006.0
20260901095520 34 0 0.0 0.0 0.00 0.40 0.00 95 1006.1
20260901095022 35 0 0.0 0.0 0.00 0.40 0.00 95 1006.0
20260901094532 35 0 0.0 0.0 0.00 0.40 0.00 95 1006.1
20260901094016 35 0 0.0 1.0 0.00 0.40 0.00 95 1006.2
20260901093518 35 0 0.0 1.0 0.00 0.40 0.00 95 1006.2
20260901093035 35 0 0.0 0.0 0.00 0.40 0.00 95 1006.1
20260901092515 35 0 0.0 0.0 0.00 0.40 0.00 95 1006.2
20260901092022 35 0 0.0 0.0 0.00 0.40 0.00 95 1006.1
20260901091539 35 0 0.0 0.0 0.00 0.40 0.00 95 1006.1
20260901091019 36 0 0.0 0.0 0.00 0.40 0.00 95 1006.1
20260901090516 36 0 0.0 0.0 0.00 0.40 0.00 95 1006.1
20260901090035 36 0 0.0 0.0 0.00 0.40 0.00 95 1005.9
20260901085521 36 0 0.0 0.0 0.00 0.40 0.00 95 1005.8
20260901085019 36 0 0.0 0.0 0.00 0.40 0.00 95 1005.9
20260901084533 36 0 0.0 0.0 0.00 0.40 0.00 95 1005.8
20260901084022 36 0 0.0 0.0 0.00 0.40 0.00 95 1005.8